RYR14YF LIPH-LEAL

Flight info

Callsign RYR14YF
Flight time 1h 58m
Altitude 37000
Route ROVIG DCT TORTU DCT ZETCO DCT SORAS N850 ADX Z237 OKITI M603 GERVU
Aircraft B38M/M-SADE3FGILRWY/SB1

Departure

Time 2026-04-24 21:49
Airport Treviso Airport (LIPH)

Arrival

Time 2026-04-24 23:47
Airport Alicante-Elche Miguel Hernández Airport (LEAL)
Time Latitude Longitude Altitude Speed Heading
2026-04-24 21:27 45.65385 12.20429 65 ft 0 kts 338°
2026-04-24 21:41 45.65383 12.20430 65 ft 3 kts 338°
2026-04-24 21:42 45.65362 12.20445 55 ft 4 kts 333°
2026-04-24 21:42 45.65344 12.20454 59 ft 4 kts
2026-04-24 21:42 45.65331 12.20454 57 ft 4 kts 36°
2026-04-24 21:42 45.65313 12.20441 57 ft 4 kts 41°
2026-04-24 21:43 45.65306 12.20412 57 ft 4 kts 89°
2026-04-24 21:43 45.65303 12.20383 60 ft 1 kts 69°
2026-04-24 21:43 45.65302 12.20378 56 ft 0 kts 69°
2026-04-24 21:46 45.65307 12.20399 61 ft 5 kts 69°
2026-04-24 21:46 45.65332 12.20493 60 ft 15 kts 69°
2026-04-24 21:47 45.65370 12.20633 60 ft 15 kts 69°
2026-04-24 21:47 45.65375 12.20710 60 ft 9 kts 120°
2026-04-24 21:47 45.65321 12.20754 61 ft 6 kts 158°
2026-04-24 21:47 45.65273 12.20779 61 ft 8 kts 160°
2026-04-24 21:48 45.65218 12.20777 65 ft 8 kts 225°
2026-04-24 21:48 45.65183 12.20662 59 ft 32 kts 249°
2026-04-24 21:48 45.64998 12.19961 58 ft 116 kts 249°
2026-04-24 21:48 45.64633 12.18588 156 ft 173 kts 250°
2026-04-24 21:49 45.64184 12.16944 1004 ft 178 kts 247°
2026-04-24 21:49 45.63695 12.15302 1912 ft 186 kts 245°
2026-04-24 21:49 45.63144 12.13517 2503 ft 208 kts 246°
2026-04-24 21:49 45.62525 12.11506 3081 ft 234 kts 246°
2026-04-24 21:50 45.61828 12.09300 3850 ft 251 kts 245°
2026-04-24 21:50 45.61067 12.06969 4715 ft 265 kts 245°
2026-04-24 21:50 45.60291 12.04589 5841 ft 266 kts 245°
2026-04-24 21:50 45.59502 12.02165 6822 ft 272 kts 245°
2026-04-24 21:51 45.58699 11.99693 7763 ft 278 kts 246°
2026-04-24 21:51 45.57876 11.97165 8682 ft 284 kts 246°
2026-04-24 21:51 45.57033 11.94579 9595 ft 290 kts 246°
2026-04-24 21:51 45.56173 11.91940 10431 ft 298 kts 246°
2026-04-24 21:52 45.55269 11.89173 10926 ft 317 kts 246°
2026-04-24 21:52 45.54317 11.86261 11518 ft 330 kts 246°
2026-04-24 21:52 45.53334 11.83257 12285 ft 336 kts 246°
2026-04-24 21:52 45.52341 11.80227 13137 ft 340 kts 246°
2026-04-24 21:53 45.51117 11.77358 13919 ft 347 kts 232°
2026-04-24 21:53 45.49306 11.75010 14651 ft 352 kts 211°
2026-04-24 21:53 45.47018 11.73794 15391 ft 355 kts 189°
2026-04-24 21:53 45.44546 11.73806 16098 ft 358 kts 170°
2026-04-24 21:54 45.42125 11.74478 16801 ft 361 kts 168°
2026-04-24 21:54 45.39649 11.75205 17505 ft 364 kts 168°
2026-04-24 21:54 45.37160 11.75960 18200 ft 367 kts 167°
2026-04-24 21:54 45.34652 11.76731 18800 ft 370 kts 167°
2026-04-24 21:55 45.32128 11.77512 19395 ft 373 kts 167°
2026-04-24 21:55 45.29578 11.78301 19969 ft 376 kts 167°
2026-04-24 21:55 45.27011 11.79096 20532 ft 379 kts 167°
2026-04-24 21:55 45.24425 11.79896 21093 ft 382 kts 167°
2026-04-24 21:56 45.21816 11.80702 21644 ft 385 kts 167°
2026-04-24 21:56 45.19194 11.81513 22191 ft 388 kts 167°
2026-04-24 21:56 45.16539 11.82332 22739 ft 391 kts 167°
2026-04-24 21:56 45.13869 11.83155 23287 ft 393 kts 167°
2026-04-24 21:57 45.11186 11.83981 23778 ft 396 kts 167°
2026-04-24 21:57 45.08485 11.84813 24198 ft 399 kts 167°
2026-04-24 21:57 45.05762 11.85650 24645 ft 401 kts 167°
2026-04-24 21:57 45.03023 11.86491 25066 ft 404 kts 167°
2026-04-24 21:58 45.00305 11.87325 25476 ft 406 kts 167°
2026-04-24 21:58 44.97476 11.88021 25886 ft 409 kts 176°
2026-04-24 21:58 44.94678 11.87671 26298 ft 412 kts 194°
2026-04-24 21:58 44.92850 11.86763 26545 ft 415 kts 205°
2026-04-24 21:59 44.89760 11.83606 27030 ft 419 kts 227°
2026-04-24 21:59 44.87921 11.80389 27390 ft 422 kts 233°
2026-04-24 21:59 44.86162 11.77051 27736 ft 426 kts 233°
2026-04-24 21:59 44.84423 11.73664 28107 ft 428 kts 234°
2026-04-24 22:00 44.82688 11.70242 28473 ft 431 kts 234°
2026-04-24 22:00 44.81536 11.67953 28698 ft 433 kts 234°
2026-04-24 22:00 44.79792 11.64479 29041 ft 435 kts 234°
2026-04-24 22:00 44.78046 11.60997 29405 ft 438 kts 234°
2026-04-24 22:01 44.76280 11.57478 29748 ft 440 kts 234°
2026-04-24 22:01 44.74506 11.53947 30085 ft 443 kts 234°
2026-04-24 22:01 44.72723 11.50400 30363 ft 445 kts 234°
2026-04-24 22:01 44.70927 11.46834 30642 ft 448 kts 234°
2026-04-24 22:02 44.69127 11.43262 30938 ft 450 kts 234°
2026-04-24 22:02 44.67312 11.39669 31212 ft 452 kts 234°
2026-04-24 22:02 44.65488 11.36059 31474 ft 454 kts 234°
2026-04-24 22:02 44.63650 11.32426 31750 ft 456 kts 234°
2026-04-24 22:03 44.61808 11.28792 32025 ft 458 kts 234°
2026-04-24 22:03 44.59953 11.25135 32302 ft 460 kts 234°
2026-04-24 22:03 44.58093 11.21472 32554 ft 463 kts 234°
2026-04-24 22:03 44.56219 11.17788 32817 ft 464 kts 234°
2026-04-24 22:04 44.54340 11.14098 33078 ft 467 kts 234°
2026-04-24 22:04 44.52450 11.10392 33387 ft 467 kts 234°
2026-04-24 22:04 44.50586 11.06741 33737 ft 467 kts 234°
2026-04-24 22:04 44.48695 11.03042 34078 ft 467 kts 234°
2026-04-24 22:05 44.46805 10.99348 34380 ft 466 kts 234°
2026-04-24 22:05 44.44916 10.95664 34685 ft 466 kts 234°
2026-04-24 22:05 44.43029 10.91986 34991 ft 465 kts 234°
2026-04-24 22:05 44.41139 10.88308 35292 ft 465 kts 234°
2026-04-24 22:06 44.39256 10.84646 35592 ft 464 kts 234°
2026-04-24 22:06 44.37368 10.80983 35896 ft 463 kts 234°
2026-04-24 22:06 44.35485 10.77331 36157 ft 463 kts 234°
2026-04-24 22:06 44.33605 10.73690 36425 ft 462 kts 234°
2026-04-24 22:07 44.31722 10.70049 36686 ft 462 kts 234°
2026-04-24 22:07 44.29842 10.66418 36949 ft 461 kts 234°
2026-04-24 22:07 44.27964 10.62794 37114 ft 462 kts 234°
2026-04-24 22:08 44.24198 10.55543 37129 ft 459 kts 234°
2026-04-24 22:08 44.20468 10.48379 37142 ft 460 kts 234°
2026-04-24 22:09 44.16704 10.41169 37138 ft 460 kts 234°
2026-04-24 22:09 44.12938 10.33970 37130 ft 460 kts 234°
2026-04-24 22:10 44.09159 10.26765 37141 ft 461 kts 234°
2026-04-24 22:10 44.05377 10.19573 37130 ft 461 kts 233°
2026-04-24 22:11 44.01592 10.12391 37123 ft 460 kts 233°
2026-04-24 22:11 43.97805 10.05226 37129 ft 460 kts 233°
2026-04-24 22:12 43.94011 9.98062 37135 ft 460 kts 233°
2026-04-24 22:12 43.90239 9.90960 37129 ft 460 kts 233°
2026-04-24 22:13 43.86440 9.83823 37127 ft 460 kts 233°
2026-04-24 22:13 43.82637 9.76695 37132 ft 460 kts 233°
2026-04-24 22:14 43.78832 9.69581 37121 ft 460 kts 233°
2026-04-24 22:14 43.75021 9.62475 37129 ft 460 kts 233°
2026-04-24 22:15 43.71209 9.55383 37131 ft 459 kts 233°
2026-04-24 22:15 43.67394 9.48303 37126 ft 459 kts 233°
2026-04-24 22:16 43.63575 9.41233 37126 ft 459 kts 233°
2026-04-24 22:16 43.59754 9.34174 37126 ft 459 kts 233°
2026-04-24 22:17 43.55959 9.27183 37128 ft 458 kts 233°
2026-04-24 22:17 43.52134 9.20150 37132 ft 458 kts 233°
2026-04-24 22:18 43.48310 9.13132 37128 ft 458 kts 233°
2026-04-24 22:18 43.44485 9.06129 37127 ft 458 kts 233°
2026-04-24 22:19 43.40653 8.99130 37126 ft 458 kts 233°
2026-04-24 22:19 43.36900 8.92067 37130 ft 457 kts 234°
2026-04-24 22:20 43.33176 8.84978 37131 ft 457 kts 234°
2026-04-24 22:20 43.29447 8.77904 37126 ft 457 kts 234°
2026-04-24 22:21 43.25746 8.70898 37120 ft 457 kts 234°
2026-04-24 22:21 43.22006 8.63838 37128 ft 457 kts 234°
2026-04-24 22:22 43.18268 8.56797 37127 ft 457 kts 234°
2026-04-24 22:22 43.14524 8.49761 37128 ft 457 kts 234°
2026-04-24 22:23 43.10781 8.42745 37123 ft 457 kts 234°
2026-04-24 22:23 43.07032 8.35734 37126 ft 456 kts 234°
2026-04-24 22:24 43.03280 8.28734 37124 ft 456 kts 234°
2026-04-24 22:24 42.99527 8.21749 37124 ft 456 kts 234°
2026-04-24 22:25 42.95771 8.14774 37122 ft 456 kts 234°
2026-04-24 22:25 42.92012 8.07810 37125 ft 456 kts 234°
2026-04-24 22:26 42.88249 8.00854 37123 ft 456 kts 234°
2026-04-24 22:26 42.84479 7.93903 37126 ft 456 kts 234°
2026-04-24 22:27 42.80707 7.86965 37127 ft 455 kts 234°
2026-04-24 22:27 42.76961 7.80089 37125 ft 455 kts 234°
2026-04-24 22:28 42.73188 7.73179 37129 ft 455 kts 234°
2026-04-24 22:28 42.69408 7.66274 37132 ft 455 kts 234°
2026-04-24 22:29 42.63739 7.55945 37134 ft 455 kts 234°
2026-04-24 22:29 42.59955 7.49073 37132 ft 454 kts 234°
2026-04-24 22:30 42.56167 7.42209 37136 ft 454 kts 234°
2026-04-24 22:30 42.52379 7.35360 37134 ft 454 kts 234°
2026-04-24 22:31 42.48612 7.28563 37141 ft 454 kts 234°
2026-04-24 22:31 42.44820 7.21740 37135 ft 453 kts 234°
2026-04-24 22:32 42.41024 7.14922 37138 ft 453 kts 234°
2026-04-24 22:32 42.37227 7.08118 37138 ft 453 kts 234°
2026-04-24 22:33 42.33427 7.01324 37139 ft 453 kts 234°
2026-04-24 22:33 42.29623 6.94541 37140 ft 453 kts 234°
2026-04-24 22:34 42.25818 6.87766 37140 ft 452 kts 235°
2026-04-24 22:34 42.22012 6.81005 37136 ft 452 kts 235°
2026-04-24 22:35 42.18203 6.74253 37140 ft 452 kts 235°
2026-04-24 22:35 42.14201 6.67787 37142 ft 454 kts 226°
2026-04-24 22:36 42.09665 6.61846 37142 ft 455 kts 227°
2026-04-24 22:36 42.05124 6.55908 37148 ft 455 kts 227°
2026-04-24 22:37 42.00580 6.49980 37148 ft 455 kts 227°
2026-04-24 22:37 41.96032 6.44063 37145 ft 455 kts 227°
2026-04-24 22:38 41.91482 6.38152 37146 ft 455 kts 227°
2026-04-24 22:38 41.86924 6.32245 37147 ft 455 kts 227°
2026-04-24 22:39 41.82362 6.26346 37151 ft 455 kts 227°
2026-04-24 22:39 41.77803 6.20463 37152 ft 455 kts 227°
2026-04-24 22:40 41.73241 6.14586 37152 ft 455 kts 227°
2026-04-24 22:40 41.68708 6.08760 37151 ft 455 kts 227°
2026-04-24 22:41 41.64145 6.02907 37150 ft 454 kts 228°
2026-04-24 22:41 41.59588 5.97074 37152 ft 454 kts 227°
2026-04-24 22:42 41.55025 5.91246 37154 ft 454 kts 228°
2026-04-24 22:42 41.50463 5.85431 37154 ft 453 kts 228°
2026-04-24 22:43 41.45905 5.79633 37152 ft 453 kts 228°
2026-04-24 22:43 41.41348 5.73848 37153 ft 452 kts 228°
2026-04-24 22:44 41.36792 5.68075 37149 ft 452 kts 227°
2026-04-24 22:44 41.32240 5.62320 37147 ft 451 kts 228°
2026-04-24 22:45 41.27686 5.56574 37151 ft 451 kts 227°
2026-04-24 22:45 41.23128 5.50834 37147 ft 451 kts 227°
2026-04-24 22:46 41.18603 5.45148 37160 ft 451 kts 227°
2026-04-24 22:46 41.14052 5.39440 37161 ft 450 kts 227°
2026-04-24 22:47 41.09499 5.33741 37160 ft 450 kts 227°
2026-04-24 22:47 41.04946 5.28053 37158 ft 449 kts 227°
2026-04-24 22:48 41.00394 5.22378 37159 ft 449 kts 227°
2026-04-24 22:48 40.95843 5.16715 37159 ft 449 kts 227°
2026-04-24 22:49 40.91291 5.11062 37151 ft 449 kts 227°
2026-04-24 22:49 40.86739 5.05423 37152 ft 449 kts 227°
2026-04-24 22:50 40.82186 4.99791 37152 ft 448 kts 227°
2026-04-24 22:50 40.77630 4.94166 37153 ft 448 kts 227°
2026-04-24 22:51 40.73076 4.88556 37153 ft 448 kts 227°
2026-04-24 22:51 40.68525 4.82958 37151 ft 448 kts 227°
2026-04-24 22:52 40.63974 4.77371 37148 ft 447 kts 227°
2026-04-24 22:52 40.59449 4.71826 37151 ft 447 kts 227°
2026-04-24 22:53 40.55166 4.66003 37131 ft 436 kts 243°
2026-04-24 22:53 40.52282 4.59031 37140 ft 434 kts 246°
2026-04-24 22:54 40.49468 4.52006 37152 ft 434 kts 247°
2026-04-24 22:54 40.46689 4.44977 37150 ft 434 kts 247°
2026-04-24 22:55 40.43910 4.37949 37146 ft 433 kts 247°
2026-04-24 22:55 40.41130 4.30932 37141 ft 433 kts 247°
2026-04-24 22:56 40.38345 4.23922 37142 ft 433 kts 247°
2026-04-24 22:56 40.35558 4.16923 37138 ft 433 kts 247°
2026-04-24 22:57 40.32770 4.09935 37141 ft 433 kts 246°
2026-04-24 22:57 40.29995 4.03001 37141 ft 433 kts 246°
2026-04-24 22:58 40.27196 3.96018 37144 ft 433 kts 246°
2026-04-24 22:58 40.24396 3.89050 37138 ft 432 kts 246°
2026-04-24 22:59 40.21591 3.82086 37139 ft 432 kts 246°
2026-04-24 23:00 40.17856 3.72834 37138 ft 432 kts 246°
2026-04-24 23:00 40.15038 3.65891 37142 ft 432 kts 246°
2026-04-24 23:01 40.12221 3.58965 37139 ft 431 kts 246°
2026-04-24 23:01 40.09404 3.52051 37138 ft 431 kts 246°
2026-04-24 23:02 40.06582 3.45137 37133 ft 431 kts 246°
2026-04-24 23:02 40.03757 3.38231 37132 ft 431 kts 245°
2026-04-24 23:03 40.00931 3.31338 37136 ft 431 kts 245°
2026-04-24 23:03 39.98098 3.24445 37138 ft 431 kts 245°
2026-04-24 23:04 39.95265 3.17566 37139 ft 431 kts 245°
2026-04-24 23:04 39.92356 3.10767 37131 ft 434 kts 239°
2026-04-24 23:05 39.88984 3.04246 37137 ft 434 kts 239°
2026-04-24 23:05 39.85592 2.97740 37146 ft 434 kts 239°
2026-04-24 23:06 39.82197 2.91249 37130 ft 434 kts 239°
2026-04-24 23:06 39.78794 2.84756 37156 ft 434 kts 239°
2026-04-24 23:07 39.75394 2.78280 37149 ft 434 kts 238°
2026-04-24 23:07 39.71985 2.71802 37158 ft 434 kts 238°
2026-04-24 23:08 39.68574 2.65333 37157 ft 434 kts 238°
2026-04-24 23:08 39.65164 2.58874 37157 ft 434 kts 238°
2026-04-24 23:09 39.61777 2.52470 37153 ft 433 kts 238°
2026-04-24 23:09 39.58365 2.46029 37150 ft 433 kts 238°
2026-04-24 23:10 39.54987 2.39572 37144 ft 432 kts 242°
2026-04-24 23:10 39.52029 2.32818 37137 ft 431 kts 242°
2026-04-24 23:11 39.49010 2.26098 37129 ft 431 kts 242°
2026-04-24 23:11 39.45982 2.19400 37129 ft 431 kts 241°
2026-04-24 23:12 39.42950 2.12707 37128 ft 431 kts 241°
2026-04-24 23:12 39.39916 2.06024 37123 ft 431 kts 241°
2026-04-24 23:13 39.36875 1.99342 37123 ft 431 kts 241°
2026-04-24 23:13 39.33836 1.92678 37124 ft 430 kts 241°
2026-04-24 23:14 39.30793 1.86019 37125 ft 430 kts 241°
2026-04-24 23:14 39.27753 1.79379 37120 ft 430 kts 240°
2026-04-24 23:15 39.24727 1.72785 37121 ft 429 kts 240°
2026-04-24 23:15 39.21683 1.66166 37123 ft 429 kts 240°
2026-04-24 23:16 39.18632 1.59546 37120 ft 429 kts 240°
2026-04-24 23:16 39.15590 1.52958 37056 ft 422 kts 240°
2026-04-24 23:16 39.14107 1.49749 36868 ft 411 kts 240°
2026-04-24 23:17 39.12658 1.46617 36485 ft 405 kts 240°
2026-04-24 23:17 39.11339 1.43439 35941 ft 402 kts 249°
2026-04-24 23:17 39.10338 1.40081 35425 ft 400 kts 249°
2026-04-24 23:17 39.09319 1.36763 34982 ft 397 kts 249°
2026-04-24 23:18 39.08313 1.33468 34527 ft 394 kts 249°
2026-04-24 23:18 39.07313 1.30192 34053 ft 393 kts 249°
2026-04-24 23:18 39.06316 1.26927 33533 ft 391 kts 249°
2026-04-24 23:18 39.05326 1.23685 33043 ft 388 kts 249°
2026-04-24 23:19 39.04340 1.20462 32593 ft 385 kts 249°
2026-04-24 23:19 39.03364 1.17273 32155 ft 382 kts 249°
2026-04-24 23:19 39.02390 1.14097 31713 ft 380 kts 249°
2026-04-24 23:19 39.01423 1.10946 31282 ft 378 kts 249°
2026-04-24 23:20 39.00461 1.07817 30857 ft 375 kts 248°
2026-04-24 23:20 38.99504 1.04705 30436 ft 373 kts 248°
2026-04-24 23:20 38.98564 1.01654 29997 ft 371 kts 248°
2026-04-24 23:20 38.97616 0.98578 29536 ft 369 kts 248°
2026-04-24 23:21 38.96675 0.95527 29126 ft 366 kts 248°
2026-04-24 23:21 38.95739 0.92498 28678 ft 364 kts 248°
2026-04-24 23:21 38.94809 0.89488 28300 ft 360 kts 248°
2026-04-24 23:21 38.93890 0.86516 27933 ft 356 kts 248°
2026-04-24 23:22 38.92978 0.83572 27568 ft 353 kts 248°
2026-04-24 23:22 38.92073 0.80652 27191 ft 351 kts 248°
2026-04-24 23:22 38.91173 0.77754 26823 ft 348 kts 248°
2026-04-24 23:22 38.90281 0.74881 26455 ft 346 kts 248°
2026-04-24 23:23 38.89392 0.72023 26100 ft 343 kts 248°
2026-04-24 23:23 38.88509 0.69187 25734 ft 341 kts 247°
2026-04-24 23:23 38.87627 0.66358 25352 ft 342 kts 247°
2026-04-24 23:23 38.86739 0.63513 24973 ft 346 kts 247°
2026-04-24 23:24 38.85839 0.60633 24629 ft 349 kts 247°
2026-04-24 23:24 38.84936 0.57744 24289 ft 349 kts 247°
2026-04-24 23:24 38.84045 0.54898 23936 ft 348 kts 247°
2026-04-24 23:24 38.83145 0.52026 23551 ft 346 kts 246°
2026-04-24 23:25 38.82250 0.49168 23143 ft 344 kts 247°
2026-04-24 23:25 38.81589 0.46223 22779 ft 342 kts 255°
2026-04-24 23:25 38.81011 0.43283 22540 ft 341 kts 254°
2026-04-24 23:25 38.80412 0.40347 22251 ft 340 kts 253°
2026-04-24 23:26 38.79806 0.37429 21950 ft 338 kts 253°
2026-04-24 23:26 38.79195 0.34524 21640 ft 337 kts 253°
2026-04-24 23:26 38.78587 0.31645 21332 ft 335 kts 253°
2026-04-24 23:26 38.77978 0.28773 21030 ft 333 kts 253°
2026-04-24 23:27 38.77367 0.25897 20719 ft 332 kts 253°
2026-04-24 23:27 38.76761 0.23052 20418 ft 330 kts 253°
2026-04-24 23:27 38.76158 0.20225 20116 ft 329 kts 253°
2026-04-24 23:27 38.75557 0.17406 19816 ft 327 kts 253°
2026-04-24 23:28 38.74958 0.14603 19516 ft 326 kts 253°
2026-04-24 23:28 38.74362 0.11818 19222 ft 323 kts 253°
2026-04-24 23:28 38.73772 0.09059 18925 ft 320 kts 253°
2026-04-24 23:28 38.73185 0.06327 18634 ft 317 kts 253°
2026-04-24 23:29 38.72601 0.03607 18334 ft 316 kts 253°
2026-04-24 23:29 38.72028 0.00942 18020 ft 314 kts 253°
2026-04-24 23:29 38.71443 -0.01774 17752 ft 319 kts 252°
2026-04-24 23:29 38.70849 -0.04529 17419 ft 323 kts 252°
2026-04-24 23:30 38.70252 -0.07296 17115 ft 323 kts 252°
2026-04-24 23:30 38.69655 -0.10062 16825 ft 321 kts 252°
2026-04-24 23:30 38.69061 -0.12806 16531 ft 318 kts 252°
2026-04-24 23:30 38.68473 -0.15521 16243 ft 315 kts 252°
2026-04-24 23:31 38.67887 -0.18219 15952 ft 313 kts 252°
2026-04-24 23:31 38.67306 -0.20895 15668 ft 313 kts 252°
2026-04-24 23:31 38.66723 -0.23578 15381 ft 312 kts 253°
2026-04-24 23:31 38.66143 -0.26244 15089 ft 310 kts 252°
2026-04-24 23:32 38.65566 -0.28888 14810 ft 307 kts 252°
2026-04-24 23:32 38.64995 -0.31505 14537 ft 304 kts 252°
2026-04-24 23:32 38.64428 -0.34103 14255 ft 303 kts 252°
2026-04-24 23:32 38.63861 -0.36696 13980 ft 303 kts 252°
2026-04-24 23:33 38.63302 -0.39252 13684 ft 303 kts 252°
2026-04-24 23:33 38.62918 -0.41008 13474 ft 303 kts 252°
2026-04-24 23:33 38.62166 -0.44451 13055 ft 303 kts 252°
2026-04-24 23:33 38.61601 -0.47035 12783 ft 301 kts 252°
2026-04-24 23:34 38.61038 -0.49607 12533 ft 300 kts 252°
2026-04-24 23:34 38.60477 -0.52173 12263 ft 299 kts 252°
2026-04-24 23:34 38.59917 -0.54729 11983 ft 298 kts 252°
2026-04-24 23:34 38.59358 -0.57277 11712 ft 297 kts 252°
2026-04-24 23:35 38.58799 -0.59820 11448 ft 297 kts 252°
2026-04-24 23:35 38.58241 -0.62359 11179 ft 297 kts 252°
2026-04-24 23:35 38.57682 -0.64897 10904 ft 297 kts 252°
2026-04-24 23:35 38.57139 -0.67362 10639 ft 296 kts 252°
2026-04-24 23:36 38.56579 -0.69900 10317 ft 297 kts 252°
2026-04-24 23:36 38.56018 -0.72438 9989 ft 296 kts 251°
2026-04-24 23:36 38.55460 -0.74962 9660 ft 295 kts 252°
2026-04-24 23:36 38.54911 -0.77443 9373 ft 292 kts 252°
2026-04-24 23:37 38.54361 -0.79925 9102 ft 288 kts 252°
2026-04-24 23:37 38.53785 -0.82355 8827 ft 283 kts 244°
2026-04-24 23:37 38.51381 -0.86154 8291 ft 272 kts 221°
2026-04-24 23:38 38.50012 -0.87790 8050 ft 267 kts 220°
2026-04-24 23:38 38.48629 -0.89341 7811 ft 263 kts 218°
2026-04-24 23:38 38.47215 -0.90793 7573 ft 258 kts 215°
2026-04-24 23:38 38.45770 -0.92130 7347 ft 255 kts 212°
2026-04-24 23:39 38.44294 -0.93350 7113 ft 251 kts 209°
2026-04-24 23:39 38.42797 -0.94452 6884 ft 247 kts 206°
2026-04-24 23:39 38.41275 -0.95442 6642 ft 244 kts 203°
2026-04-24 23:39 38.39733 -0.96322 6407 ft 240 kts 200°
2026-04-24 23:40 38.38176 -0.97019 6156 ft 234 kts 189°
2026-04-24 23:40 38.36581 -0.97280 5933 ft 228 kts 178°
2026-04-24 23:40 38.35141 -0.96694 5698 ft 216 kts 141°
2026-04-24 23:40 38.34035 -0.95442 5582 ft 213 kts 134°
2026-04-24 23:41 38.33294 -0.93829 5368 ft 214 kts 103°
2026-04-24 23:41 38.33107 -0.91947 5190 ft 214 kts 96°
2026-04-24 23:41 38.32933 -0.90095 5040 ft 208 kts 99°
2026-04-24 23:41 38.32719 -0.88312 4842 ft 205 kts 100°
2026-04-24 23:42 38.32484 -0.86539 4608 ft 202 kts 100°
2026-04-24 23:42 38.32246 -0.84788 4350 ft 199 kts 100°
2026-04-24 23:42 38.32010 -0.83078 4127 ft 193 kts 100°
2026-04-24 23:42 38.31780 -0.81412 3864 ft 189 kts 100°
2026-04-24 23:43 38.31555 -0.79790 3622 ft 184 kts 99°
2026-04-24 23:43 38.31335 -0.78208 3401 ft 179 kts 99°
2026-04-24 23:43 38.31119 -0.76660 3150 ft 176 kts 99°
2026-04-24 23:43 38.30910 -0.75153 2930 ft 168 kts 99°
2026-04-24 23:44 38.30707 -0.73696 2718 ft 164 kts 99°
2026-04-24 23:44 38.30512 -0.72290 2501 ft 159 kts 99°
2026-04-24 23:44 38.30319 -0.70905 2275 ft 158 kts 99°
2026-04-24 23:44 38.30127 -0.69524 2074 ft 159 kts 99°
2026-04-24 23:45 38.29937 -0.68157 1892 ft 154 kts 99°
2026-04-24 23:45 38.29753 -0.66840 1666 ft 148 kts 98°
2026-04-24 23:45 38.29577 -0.65570 1456 ft 148 kts 99°
2026-04-24 23:45 38.29397 -0.64282 1263 ft 148 kts 98°
2026-04-24 23:46 38.29217 -0.62995 1051 ft 148 kts 98°
2026-04-24 23:46 38.29039 -0.61710 857 ft 148 kts 98°
2026-04-24 23:46 38.28856 -0.60426 669 ft 146 kts 98°
2026-04-24 23:46 38.28680 -0.59155 457 ft 145 kts 98°
2026-04-24 23:47 38.28505 -0.57892 254 ft 144 kts 98°
2026-04-24 23:47 38.28333 -0.56652 132 ft 135 kts 98°
2026-04-24 23:47 38.28207 -0.55744 101 ft 71 kts 100°
2026-04-24 23:47 38.28143 -0.55287 83 ft 43 kts 100°
2026-04-24 23:48 38.28118 -0.55048 77 ft 23 kts 84°
2026-04-24 23:48 38.28148 -0.54880 68 ft 18 kts 70°
2026-04-24 23:48 38.28183 -0.54753 61 ft 14 kts 70°
2026-04-24 23:48 38.28235 -0.54728 63 ft 10 kts 314°
2026-04-24 23:49 38.28253 -0.54800 69 ft 2 kts 281°
2026-04-24 23:49 38.28261 -0.54856 70 ft 13 kts 279°
2026-04-24 23:49 38.28285 -0.55026 73 ft 22 kts 280°
2026-04-24 23:49 38.28313 -0.55191 88 ft 14 kts 306°
2026-04-24 23:50 38.28381 -0.55170 91 ft 10 kts 53°
2026-04-24 23:50 38.28419 -0.55100 92 ft 10 kts 68°
2026-04-24 23:50 38.28436 -0.54997 89 ft 14 kts 41°
2026-04-24 23:50 38.28535 -0.54965 89 ft 16 kts 10°
2026-04-24 23:51 38.28620 -0.54947 89 ft 6 kts
2026-04-24 23:51 38.28633 -0.54957 90 ft 1 kts 302°
2026-04-24 23:51 38.28636 -0.54967 92 ft 3 kts 288°
2026-04-24 23:51 38.28642 -0.55003 93 ft 5 kts 279°
2026-04-24 23:52 38.28645 -0.55025 96 ft 1 kts 279°
2026-04-24 23:52 38.28645 -0.55027 96 ft 0 kts 279°